Year,Month,Day,Hour,Minute,Value (Times are PST for temperature in C)
2006,07,22,00,00,23.10
2006,07,22,00,01,23.10
2006,07,22,00,02,23.10
2006,07,22,00,03,23.10
2006,07,22,00,04,23.10
2006,07,22,00,05,22.90
2006,07,22,00,06,22.90
2006,07,22,00,07,22.90
2006,07,22,00,08,22.90
2006,07,22,00,09,22.90
2006,07,22,00,10,22.90
2006,07,22,00,11,22.90
2006,07,22,00,12,22.90
2006,07,22,00,13,22.90
2006,07,22,00,14,22.90
2006,07,22,00,15,22.90
2006,07,22,00,16,22.90
2006,07,22,00,17,22.80
2006,07,22,00,18,22.80
2006,07,22,00,19,22.80
2006,07,22,00,20,22.80
2006,07,22,00,21,22.80
2006,07,22,00,22,22.70
2006,07,22,00,23,22.70
2006,07,22,00,24,22.70
2006,07,22,00,25,22.70
2006,07,22,00,26,22.70
2006,07,22,00,27,22.70
2006,07,22,00,28,22.70
2006,07,22,00,29,22.60
2006,07,22,00,30,22.60
2006,07,22,00,31,22.60
2006,07,22,00,32,22.60
2006,07,22,00,33,22.60
2006,07,22,00,34,22.50
2006,07,22,00,35,22.50
2006,07,22,00,36,22.50
2006,07,22,00,37,22.50
2006,07,22,00,38,22.50
2006,07,22,00,39,22.40
2006,07,22,00,40,22.40
2006,07,22,00,41,22.40
2006,07,22,00,42,22.40
2006,07,22,00,43,22.30
2006,07,22,00,44,22.30
2006,07,22,00,45,22.30
2006,07,22,00,46,22.30
2006,07,22,00,47,22.30
2006,07,22,00,48,22.30
2006,07,22,00,49,22.30
2006,07,22,00,50,22.20
2006,07,22,00,51,22.20
2006,07,22,00,52,22.20
2006,07,22,00,53,22.20
2006,07,22,00,54,22.20
2006,07,22,00,55,22.20
2006,07,22,00,56,22.10
2006,07,22,00,57,22.10
2006,07,22,00,58,22.10
2006,07,22,00,59,22.10
2006,07,22,01,00,22.10
2006,07,22,01,01,22.10
2006,07,22,01,02,22.00
2006,07,22,01,03,22.00
2006,07,22,01,04,22.00
2006,07,22,01,05,22.00
2006,07,22,01,06,22.00
2006,07,22,01,07,22.00
2006,07,22,01,08,22.00
2006,07,22,01,09,22.00
2006,07,22,01,10,22.00
2006,07,22,01,11,22.00
2006,07,22,01,12,22.00
2006,07,22,01,13,21.90
2006,07,22,01,14,21.90
2006,07,22,01,15,21.90
2006,07,22,01,16,21.90
2006,07,22,01,17,21.90
2006,07,22,01,18,21.90
2006,07,22,01,19,21.90
2006,07,22,01,20,21.90
2006,07,22,01,21,21.80
2006,07,22,01,22,21.80
2006,07,22,01,23,21.80
2006,07,22,01,24,21.80
2006,07,22,01,25,21.80
2006,07,22,01,26,21.80
2006,07,22,01,27,21.80
2006,07,22,01,28,21.80
2006,07,22,01,29,21.70
2006,07,22,01,30,21.70
2006,07,22,01,31,21.70
2006,07,22,01,32,21.70
2006,07,22,01,33,21.70
2006,07,22,01,34,21.70
2006,07,22,01,35,21.70
2006,07,22,01,36,21.70
2006,07,22,01,37,21.60
2006,07,22,01,38,21.60
2006,07,22,01,39,21.60
2006,07,22,01,40,21.60
2006,07,22,01,41,21.60
2006,07,22,01,42,21.60
2006,07,22,01,43,21.60
2006,07,22,01,44,21.60
2006,07,22,01,45,21.60
2006,07,22,01,46,21.60
2006,07,22,01,47,21.60
2006,07,22,01,48,21.60
2006,07,22,01,49,21.60
2006,07,22,01,50,21.60
2006,07,22,01,51,21.50
2006,07,22,01,52,21.40
2006,07,22,01,53,21.40
2006,07,22,01,54,21.40
2006,07,22,01,55,21.40
2006,07,22,01,56,21.40
2006,07,22,01,57,21.40
2006,07,22,01,58,21.30
2006,07,22,01,59,21.30
2006,07,22,02,00,21.30
2006,07,22,02,01,21.30
2006,07,22,02,02,21.30
2006,07,22,02,03,21.30
2006,07,22,02,04,21.30
2006,07,22,02,05,21.30
2006,07,22,02,06,21.30
2006,07,22,02,07,21.30
2006,07,22,02,08,21.30
2006,07,22,02,09,21.30
2006,07,22,02,10,21.30
2006,07,22,02,11,21.30
2006,07,22,02,12,21.30
2006,07,22,02,13,21.30
2006,07,22,02,14,21.30
2006,07,22,02,15,21.30
2006,07,22,02,16,21.30
2006,07,22,02,17,21.30
2006,07,22,02,18,21.30
2006,07,22,02,19,21.30
2006,07,22,02,20,21.30
2006,07,22,02,21,21.30
2006,07,22,02,22,21.30
2006,07,22,02,23,21.30
2006,07,22,02,24,21.30
2006,07,22,02,25,21.30
2006,07,22,02,26,21.30
2006,07,22,02,27,21.30
2006,07,22,02,28,21.30
2006,07,22,02,29,21.30
2006,07,22,02,30,21.30
2006,07,22,02,31,21.30
2006,07,22,02,32,21.30
2006,07,22,02,33,21.20
2006,07,22,02,34,21.20
2006,07,22,02,35,21.20
2006,07,22,02,36,21.20
2006,07,22,02,37,21.20
2006,07,22,02,38,21.20
2006,07,22,02,39,21.20
2006,07,22,02,40,21.20
2006,07,22,02,41,21.20
2006,07,22,02,42,21.20
2006,07,22,02,43,21.20
2006,07,22,02,44,21.20
2006,07,22,02,45,21.20
2006,07,22,02,46,21.20
2006,07,22,02,47,21.20
2006,07,22,02,48,21.20
2006,07,22,02,49,21.20
2006,07,22,02,50,21.20
2006,07,22,02,51,21.20
2006,07,22,02,52,21.20
2006,07,22,02,53,21.20
2006,07,22,02,54,21.20
2006,07,22,02,55,21.20
2006,07,22,02,56,21.20
2006,07,22,02,57,21.10
2006,07,22,02,58,21.10
2006,07,22,02,59,21.10
2006,07,22,03,00,21.10
2006,07,22,03,01,21.10
2006,07,22,03,02,21.10
2006,07,22,03,03,21.10
2006,07,22,03,04,21.10
2006,07,22,03,05,21.10
2006,07,22,03,06,21.10
2006,07,22,03,07,21.10
2006,07,22,03,08,21.10
2006,07,22,03,09,21.10
2006,07,22,03,10,21.10
2006,07,22,03,11,21.10
2006,07,22,03,12,21.10
2006,07,22,03,13,21.10
2006,07,22,03,14,21.10
2006,07,22,03,15,21.10
2006,07,22,03,16,21.00
2006,07,22,03,17,21.00
2006,07,22,03,18,21.00
2006,07,22,03,19,21.00
2006,07,22,03,20,21.10
2006,07,22,03,21,21.10
2006,07,22,03,22,21.10
2006,07,22,03,23,21.10
2006,07,22,03,24,21.10
2006,07,22,03,25,21.00
2006,07,22,03,26,21.00
2006,07,22,03,27,21.00
2006,07,22,03,28,21.00
2006,07,22,03,29,21.00
2006,07,22,03,30,21.00
2006,07,22,03,31,21.00
2006,07,22,03,32,21.00
2006,07,22,03,33,21.00
2006,07,22,03,34,21.00
2006,07,22,03,35,21.00
2006,07,22,03,36,21.00
2006,07,22,03,37,21.00
2006,07,22,03,38,21.00
2006,07,22,03,39,20.90
2006,07,22,03,40,20.90
2006,07,22,03,41,20.90
2006,07,22,03,42,20.90
2006,07,22,03,43,20.90
2006,07,22,03,44,20.90
2006,07,22,03,45,20.90
2006,07,22,03,46,20.90
2006,07,22,03,47,20.90
2006,07,22,03,48,20.90
2006,07,22,03,49,20.80
2006,07,22,03,50,20.80
2006,07,22,03,51,20.80
2006,07,22,03,52,20.80
2006,07,22,03,53,20.80
2006,07,22,03,54,20.80
2006,07,22,03,55,20.80
2006,07,22,03,56,20.80
2006,07,22,03,57,20.80
2006,07,22,03,58,20.80
2006,07,22,03,59,20.80
2006,07,22,04,00,20.80
2006,07,22,04,01,20.80
2006,07,22,04,02,20.80
2006,07,22,04,03,20.80
2006,07,22,04,04,20.80
2006,07,22,04,05,20.80
2006,07,22,04,06,20.80
2006,07,22,04,07,20.80
2006,07,22,04,08,20.80
2006,07,22,04,09,20.80
2006,07,22,04,10,20.80
2006,07,22,04,11,20.70
2006,07,22,04,12,20.70
2006,07,22,04,13,20.70
2006,07,22,04,14,20.70
2006,07,22,04,15,20.70
2006,07,22,04,16,20.70
2006,07,22,04,17,20.70
2006,07,22,04,18,20.70
2006,07,22,04,19,20.70
2006,07,22,04,20,20.70
2006,07,22,04,21,20.70
2006,07,22,04,22,20.70
2006,07,22,04,23,20.60
2006,07,22,04,24,20.60
2006,07,22,04,25,20.60
2006,07,22,04,26,20.60
2006,07,22,04,27,20.60
2006,07,22,04,28,20.60
2006,07,22,04,29,20.60
2006,07,22,04,30,20.60
2006,07,22,04,31,20.60
2006,07,22,04,32,20.60
2006,07,22,04,33,20.60
2006,07,22,04,34,20.60
2006,07,22,04,35,20.60
2006,07,22,04,36,20.60
2006,07,22,04,37,20.60
2006,07,22,04,38,20.60
2006,07,22,04,39,20.60
2006,07,22,04,40,20.60
2006,07,22,04,41,20.60
2006,07,22,04,42,20.50
2006,07,22,04,43,20.50
2006,07,22,04,44,20.50
2006,07,22,04,45,20.50
2006,07,22,04,46,20.50
2006,07,22,04,47,20.50
2006,07,22,04,48,20.50
2006,07,22,04,49,20.50
2006,07,22,04,50,20.50
2006,07,22,04,51,20.50
2006,07,22,04,52,20.50
2006,07,22,04,53,20.50
2006,07,22,04,54,20.50
2006,07,22,04,55,20.50
2006,07,22,04,56,20.50
2006,07,22,04,57,20.50
2006,07,22,04,58,20.50
2006,07,22,04,59,20.50
2006,07,22,05,00,20.50
2006,07,22,05,01,20.50
2006,07,22,05,02,20.50
2006,07,22,05,03,20.50
2006,07,22,05,04,20.50
2006,07,22,05,05,20.50
2006,07,22,05,06,20.50
2006,07,22,05,07,20.50
2006,07,22,05,08,20.50
2006,07,22,05,09,20.50
2006,07,22,05,10,20.50
2006,07,22,05,11,20.50
2006,07,22,05,12,20.50
2006,07,22,05,13,20.50
2006,07,22,05,14,20.50
2006,07,22,05,15,20.50
2006,07,22,05,16,20.50
2006,07,22,05,17,20.50
2006,07,22,05,18,20.50
2006,07,22,05,19,20.50
2006,07,22,05,20,20.50
2006,07,22,05,21,20.50
2006,07,22,05,22,20.50
2006,07,22,05,23,20.50
2006,07,22,05,24,20.50
2006,07,22,05,25,20.50
2006,07,22,05,26,20.50
2006,07,22,05,27,20.50
2006,07,22,05,28,20.50
2006,07,22,05,29,20.50
2006,07,22,05,30,20.50
2006,07,22,05,31,20.50
2006,07,22,05,32,20.50
2006,07,22,05,33,20.50
2006,07,22,05,34,20.50
2006,07,22,05,35,20.50
2006,07,22,05,36,20.50
2006,07,22,05,37,20.50
2006,07,22,05,38,20.50
2006,07,22,05,39,20.50
2006,07,22,05,40,20.50
2006,07,22,05,41,20.50
2006,07,22,05,42,20.60
2006,07,22,05,43,20.60
2006,07,22,05,44,20.60
2006,07,22,05,45,20.60
2006,07,22,05,46,20.60
2006,07,22,05,47,20.60
2006,07,22,05,48,20.60
2006,07,22,05,49,20.60
2006,07,22,05,50,20.60
2006,07,22,05,51,20.60
2006,07,22,05,52,20.60
2006,07,22,05,53,20.50
2006,07,22,05,54,20.50
2006,07,22,05,55,20.50
2006,07,22,05,56,20.50
2006,07,22,05,57,20.50
2006,07,22,05,58,20.50
2006,07,22,05,59,20.50
2006,07,22,06,00,20.50
2006,07,22,06,01,20.50
2006,07,22,06,02,20.50
2006,07,22,06,03,20.40
2006,07,22,06,04,20.40
2006,07,22,06,05,20.40
2006,07,22,06,06,20.40
2006,07,22,06,07,20.40
2006,07,22,06,08,20.40
2006,07,22,06,09,20.40
2006,07,22,06,10,20.40
2006,07,22,06,11,20.40
2006,07,22,06,12,20.40
2006,07,22,06,13,20.40
2006,07,22,06,14,20.40
2006,07,22,06,15,20.40
2006,07,22,06,16,20.40
2006,07,22,06,17,20.40
2006,07,22,06,18,20.40
2006,07,22,06,19,20.40
2006,07,22,06,20,20.40
2006,07,22,06,21,20.40
2006,07,22,06,22,20.40
2006,07,22,06,23,20.40
2006,07,22,06,24,20.40
2006,07,22,06,25,20.40
2006,07,22,06,26,20.50
2006,07,22,06,27,20.50
2006,07,22,06,28,20.50
2006,07,22,06,29,20.50
2006,07,22,06,30,20.50
2006,07,22,06,31,20.50
2006,07,22,06,32,20.50
2006,07,22,06,33,20.50
2006,07,22,06,34,20.50
2006,07,22,06,35,20.60
2006,07,22,06,36,20.60
2006,07,22,06,37,20.60
2006,07,22,06,38,20.60
2006,07,22,06,39,20.60
2006,07,22,06,40,20.60
2006,07,22,06,41,20.60
2006,07,22,06,42,20.70
2006,07,22,06,43,20.70
2006,07,22,06,44,20.70
2006,07,22,06,45,20.70
2006,07,22,06,46,20.80
2006,07,22,06,47,20.80
2006,07,22,06,48,20.80
2006,07,22,06,49,20.90
2006,07,22,06,50,20.90
2006,07,22,06,51,20.90
2006,07,22,06,52,21.00
2006,07,22,06,53,21.00
2006,07,22,06,54,21.00
2006,07,22,06,55,21.10
2006,07,22,06,56,21.10
2006,07,22,06,57,21.10
2006,07,22,06,58,21.20
2006,07,22,06,59,21.20
2006,07,22,07,00,21.20
2006,07,22,07,01,21.30
2006,07,22,07,02,21.30
2006,07,22,07,03,21.30
2006,07,22,07,04,21.30
2006,07,22,07,05,21.40
2006,07,22,07,06,21.50
2006,07,22,07,07,21.60
2006,07,22,07,08,21.60
2006,07,22,07,09,21.80
2006,07,22,07,10,21.90
2006,07,22,07,11,22.00
2006,07,22,07,12,22.10
2006,07,22,07,13,22.20
2006,07,22,07,14,22.20
2006,07,22,07,15,22.30
2006,07,22,07,16,22.40
2006,07,22,07,17,22.40
2006,07,22,07,18,22.50
2006,07,22,07,19,22.50
2006,07,22,07,20,22.50
2006,07,22,07,21,22.60
2006,07,22,07,22,22.60
2006,07,22,07,23,22.70
2006,07,22,07,24,22.70
2006,07,22,07,25,22.80
2006,07,22,07,26,22.80
2006,07,22,07,27,22.90
2006,07,22,07,28,22.90
2006,07,22,07,29,22.90
2006,07,22,07,30,23.10
2006,07,22,07,31,23.10
2006,07,22,07,32,23.20
2006,07,22,07,33,23.30
2006,07,22,07,34,23.30
2006,07,22,07,35,23.40
2006,07,22,07,36,23.40
2006,07,22,07,37,23.60
2006,07,22,07,38,23.60
2006,07,22,07,39,23.70
2006,07,22,07,40,23.80
2006,07,22,07,41,23.90
2006,07,22,07,42,23.90
2006,07,22,07,43,24.00
2006,07,22,07,44,24.10
2006,07,22,07,45,24.10
2006,07,22,07,46,24.20
2006,07,22,07,47,24.20
2006,07,22,07,48,24.20
2006,07,22,07,49,24.20
2006,07,22,07,50,24.20
2006,07,22,07,51,24.20
2006,07,22,07,52,24.30
2006,07,22,07,53,24.30
2006,07,22,07,54,24.30
2006,07,22,07,55,24.30
2006,07,22,07,56,24.40
2006,07,22,07,57,24.40
2006,07,22,07,58,24.40
2006,07,22,07,59,24.40
2006,07,22,08,00,24.40
2006,07,22,08,01,24.50
2006,07,22,08,02,24.50
2006,07,22,08,03,24.50
2006,07,22,08,04,24.60
2006,07,22,08,05,24.70
2006,07,22,08,06,24.70
2006,07,22,08,07,24.80
2006,07,22,08,08,24.80
2006,07,22,08,09,24.90
2006,07,22,08,10,24.90
2006,07,22,08,11,24.90
2006,07,22,08,12,24.90
2006,07,22,08,13,24.90
2006,07,22,08,14,24.90
2006,07,22,08,15,24.90
2006,07,22,08,16,24.90
2006,07,22,08,17,24.90
2006,07,22,08,18,25.00
2006,07,22,08,19,25.10
2006,07,22,08,20,25.10
2006,07,22,08,21,25.10
2006,07,22,08,22,25.20
2006,07,22,08,23,25.30
2006,07,22,08,24,25.30
2006,07,22,08,25,25.40
2006,07,22,08,26,25.40
2006,07,22,08,27,25.50
2006,07,22,08,28,25.60
2006,07,22,08,29,25.60
2006,07,22,08,30,25.70
2006,07,22,08,31,25.80
2006,07,22,08,32,25.80
2006,07,22,08,33,25.90
2006,07,22,08,34,26.00
2006,07,22,08,35,26.00
2006,07,22,08,36,26.10
2006,07,22,08,37,26.10
2006,07,22,08,38,26.20
2006,07,22,08,39,26.20
2006,07,22,08,40,26.30
2006,07,22,08,41,26.40
2006,07,22,08,42,26.50
2006,07,22,08,43,26.60
2006,07,22,08,44,26.70
2006,07,22,08,45,26.70
2006,07,22,08,46,26.80
2006,07,22,08,47,26.90
2006,07,22,08,48,27.10
2006,07,22,08,49,27.10
2006,07,22,08,50,27.20
2006,07,22,08,51,27.20
2006,07,22,08,52,27.30
2006,07,22,08,53,27.30
2006,07,22,08,54,27.40
2006,07,22,08,55,27.50
2006,07,22,08,56,27.60
2006,07,22,08,57,27.70
2006,07,22,08,58,27.70
2006,07,22,08,59,27.80
2006,07,22,09,00,27.90
2006,07,22,09,01,27.90
2006,07,22,09,02,27.90
2006,07,22,09,03,27.90
2006,07,22,09,04,27.90
2006,07,22,09,05,27.90
2006,07,22,09,06,27.80
2006,07,22,09,07,27.80
2006,07,22,09,08,27.80
2006,07,22,09,09,27.80
2006,07,22,09,10,27.80
2006,07,22,09,11,27.80
2006,07,22,09,12,27.80
2006,07,22,09,13,27.70
2006,07,22,09,14,27.70
2006,07,22,09,15,27.70
2006,07,22,09,16,27.70
2006,07,22,09,17,27.70
2006,07,22,09,18,27.70
2006,07,22,09,19,27.90
2006,07,22,09,20,28.00
2006,07,22,09,21,28.00
2006,07,22,09,22,28.00
2006,07,22,09,23,28.10
2006,07,22,09,24,28.20
2006,07,22,09,25,28.30
2006,07,22,09,26,28.40
2006,07,22,09,27,28.00
2006,07,22,09,28,27.70
2006,07,22,09,29,27.30
2006,07,22,09,30,27.10
2006,07,22,09,31,27.00
2006,07,22,09,32,26.80
2006,07,22,09,33,26.60
2006,07,22,09,34,26.30
2006,07,22,09,35,26.20
2006,07,22,09,36,26.10
2006,07,22,09,37,26.00
2006,07,22,09,38,26.00
2006,07,22,09,39,26.00
2006,07,22,09,40,26.00
2006,07,22,09,41,26.00
2006,07,22,09,42,26.00
2006,07,22,09,43,26.10
2006,07,22,09,44,26.10
2006,07,22,09,45,26.00
2006,07,22,09,46,26.00
2006,07,22,09,47,25.90
2006,07,22,09,48,25.90
2006,07,22,09,49,25.80
2006,07,22,09,50,25.90
2006,07,22,09,51,25.90
2006,07,22,09,52,26.00
2006,07,22,09,53,26.10
2006,07,22,09,54,26.30
2006,07,22,09,55,26.30
2006,07,22,09,56,26.50
2006,07,22,09,57,26.60
2006,07,22,09,58,26.70
2006,07,22,09,59,26.70
2006,07,22,10,00,26.80
2006,07,22,10,01,26.90
2006,07,22,10,02,27.00
2006,07,22,10,03,27.20
2006,07,22,10,04,27.30
2006,07,22,10,05,27.30
2006,07,22,10,06,27.30
2006,07,22,10,07,27.30
2006,07,22,10,08,27.20
2006,07,22,10,09,27.10
2006,07,22,10,10,27.00
2006,07,22,10,11,26.90
2006,07,22,10,12,26.90
2006,07,22,10,13,26.90
2006,07,22,10,14,27.00
2006,07,22,10,15,27.10
2006,07,22,10,16,27.20
2006,07,22,10,17,27.30
2006,07,22,10,18,27.40
2006,07,22,10,19,27.50
2006,07,22,10,20,27.60
2006,07,22,10,21,27.80
2006,07,22,10,22,27.90
2006,07,22,10,23,27.90
2006,07,22,10,24,27.90
2006,07,22,10,25,27.90
2006,07,22,10,26,28.00
2006,07,22,10,27,28.00
2006,07,22,10,28,28.10
2006,07,22,10,29,28.30
2006,07,22,10,30,28.40
2006,07,22,10,31,28.50
2006,07,22,10,32,28.60
2006,07,22,10,33,28.60
2006,07,22,10,34,28.70
2006,07,22,10,35,28.70
2006,07,22,10,36,28.80
2006,07,22,10,37,28.80
2006,07,22,10,38,28.40
2006,07,22,10,39,28.00
2006,07,22,10,40,27.40
2006,07,22,10,41,27.20
2006,07,22,10,42,26.30
2006,07,22,10,43,25.90
2006,07,22,10,44,25.40
2006,07,22,10,45,25.10
2006,07,22,10,46,24.90
2006,07,22,10,47,24.80
2006,07,22,10,48,24.70
2006,07,22,10,49,24.50
2006,07,22,10,50,24.40
2006,07,22,10,51,24.30
2006,07,22,10,52,24.30
2006,07,22,10,53,24.40
2006,07,22,10,54,24.50
2006,07,22,10,55,24.60
2006,07,22,10,56,24.60
2006,07,22,10,57,24.70
2006,07,22,10,58,24.80
2006,07,22,10,59,24.70
2006,07,22,11,00,24.50
2006,07,22,11,01,24.50
2006,07,22,11,02,24.50
2006,07,22,11,03,24.50
2006,07,22,11,04,24.50
2006,07,22,11,05,24.50
2006,07,22,11,06,24.50
2006,07,22,11,07,24.60
2006,07,22,11,08,24.70
2006,07,22,11,09,24.90
2006,07,22,11,10,25.10
2006,07,22,11,11,25.30
2006,07,22,11,12,25.40
2006,07,22,11,13,25.40
2006,07,22,11,14,25.30
2006,07,22,11,15,25.20
2006,07,22,11,16,25.20
2006,07,22,11,17,25.10
2006,07,22,11,18,25.20
2006,07,22,11,19,25.10
2006,07,22,11,20,25.10
2006,07,22,11,21,25.10
2006,07,22,11,22,25.20
2006,07,22,11,23,25.40
2006,07,22,11,24,25.50
2006,07,22,11,25,25.70
2006,07,22,11,26,25.80
2006,07,22,11,27,25.80
2006,07,22,11,28,26.00
2006,07,22,11,29,26.10
2006,07,22,11,30,26.20
2006,07,22,11,31,26.20
2006,07,22,11,32,26.20
2006,07,22,11,33,26.30
2006,07,22,11,34,26.30
2006,07,22,11,35,26.40
2006,07,22,11,36,26.40
2006,07,22,11,37,26.50
2006,07,22,11,38,26.60
2006,07,22,11,39,26.40
2006,07,22,11,40,26.30
2006,07,22,11,41,26.40
2006,07,22,11,42,26.50
2006,07,22,11,43,26.60
2006,07,22,11,44,26.60
2006,07,22,11,45,26.70
2006,07,22,11,46,26.70
2006,07,22,11,47,26.60
2006,07,22,11,48,26.50
2006,07,22,11,49,26.40
2006,07,22,11,50,26.40
2006,07,22,11,51,26.40
2006,07,22,11,52,26.50
2006,07,22,11,53,26.60
2006,07,22,11,54,26.50
2006,07,22,11,55,26.40
2006,07,22,11,56,26.40
2006,07,22,11,57,26.50
2006,07,22,11,58,26.60
2006,07,22,11,59,26.70
2006,07,22,12,00,26.90
2006,07,22,12,01,27.00
2006,07,22,12,02,27.10
2006,07,22,12,03,27.20
2006,07,22,12,04,27.30
2006,07,22,12,05,27.40
2006,07,22,12,06,27.60
2006,07,22,12,07,27.80
2006,07,22,12,08,28.00
2006,07,22,12,09,28.10
2006,07,22,12,10,28.10
2006,07,22,12,11,28.20
2006,07,22,12,12,28.20
2006,07,22,12,13,28.40
2006,07,22,12,14,28.60
2006,07,22,12,15,28.70
2006,07,22,12,16,28.80
2006,07,22,12,17,28.80
2006,07,22,12,18,28.90
2006,07,22,12,19,28.90
2006,07,22,12,20,28.90
2006,07,22,12,21,28.90
2006,07,22,12,22,28.90
2006,07,22,12,23,28.80
2006,07,22,12,24,28.80
2006,07,22,12,25,28.90
2006,07,22,12,26,28.90
2006,07,22,12,27,28.90
2006,07,22,12,28,28.90
2006,07,22,12,29,28.90
2006,07,22,12,30,28.90
2006,07,22,12,31,28.90
2006,07,22,12,32,29.00
2006,07,22,12,33,29.10
2006,07,22,12,34,29.20
2006,07,22,12,35,29.30
2006,07,22,12,36,29.40
2006,07,22,12,37,29.50
2006,07,22,12,38,29.50
2006,07,22,12,39,29.40
2006,07,22,12,40,29.40
2006,07,22,12,41,29.50
2006,07,22,12,42,29.50
2006,07,22,12,43,29.50
2006,07,22,12,44,29.50
2006,07,22,12,45,29.60
2006,07,22,12,46,29.60
2006,07,22,12,47,29.60
2006,07,22,12,48,29.60
2006,07,22,12,49,29.60
2006,07,22,12,50,29.80
2006,07,22,12,51,29.90
2006,07,22,12,52,30.00
2006,07,22,12,53,30.10
2006,07,22,12,54,30.20
2006,07,22,12,55,30.20
2006,07,22,12,56,30.10
2006,07,22,12,57,30.10
2006,07,22,12,58,30.10
2006,07,22,12,59,30.10
2006,07,22,13,00,30.20
2006,07,22,13,01,30.20
2006,07,22,13,02,30.30
2006,07,22,13,03,30.30
2006,07,22,13,04,30.40
2006,07,22,13,05,30.60
2006,07,22,13,06,30.60
2006,07,22,13,07,30.70
2006,07,22,13,08,30.70
2006,07,22,13,09,30.70
2006,07,22,13,10,30.90
2006,07,22,13,11,31.00
2006,07,22,13,12,31.10
2006,07,22,13,13,31.10
2006,07,22,13,14,31.20
2006,07,22,13,15,31.30
2006,07,22,13,16,31.40
2006,07,22,13,17,31.60
2006,07,22,13,18,31.60
2006,07,22,13,19,31.80
2006,07,22,13,20,31.90
2006,07,22,13,21,31.90
2006,07,22,13,22,31.90
2006,07,22,13,23,32.00
2006,07,22,13,24,32.10
2006,07,22,13,25,32.10
2006,07,22,13,26,32.10
2006,07,22,13,27,32.20
2006,07,22,13,28,32.30
2006,07,22,13,29,32.50
2006,07,22,13,30,32.60
2006,07,22,13,31,32.80
2006,07,22,13,32,33.00
2006,07,22,13,33,33.10
2006,07,22,13,34,33.20
2006,07,22,13,35,33.40
2006,07,22,13,36,33.50
2006,07,22,13,37,33.60
2006,07,22,13,38,33.60
2006,07,22,13,39,33.70
2006,07,22,13,40,33.70
2006,07,22,13,41,33.80
2006,07,22,13,42,33.70
2006,07,22,13,43,33.30
2006,07,22,13,44,32.70
2006,07,22,13,45,32.10
2006,07,22,13,46,31.70
2006,07,22,13,47,31.30
2006,07,22,13,48,30.80
2006,07,22,13,49,30.40
2006,07,22,13,50,30.20
2006,07,22,13,51,30.10
2006,07,22,13,52,29.90
2006,07,22,13,53,29.70
2006,07,22,13,54,29.60
2006,07,22,13,55,29.50
2006,07,22,13,56,29.40
2006,07,22,13,57,29.40
2006,07,22,13,58,29.20
2006,07,22,13,59,29.00
2006,07,22,14,00,28.90
2006,07,22,14,01,28.90
2006,07,22,14,02,28.80
2006,07,22,14,03,28.80
2006,07,22,14,04,28.80
2006,07,22,14,05,28.90
2006,07,22,14,06,28.90
2006,07,22,14,07,28.90
2006,07,22,14,08,29.00
2006,07,22,14,09,29.10
2006,07,22,14,10,29.00
2006,07,22,14,11,28.80
2006,07,22,14,12,28.80
2006,07,22,14,13,28.70
2006,07,22,14,14,28.60
2006,07,22,14,15,28.60
2006,07,22,14,16,28.70
2006,07,22,14,17,28.80
2006,07,22,14,18,28.90
2006,07,22,14,19,28.90
2006,07,22,14,20,28.90
2006,07,22,14,21,28.90
2006,07,22,14,22,28.90
2006,07,22,14,23,28.90
2006,07,22,14,24,29.00
2006,07,22,14,25,29.20
2006,07,22,14,26,29.20
2006,07,22,14,27,29.30
2006,07,22,14,28,29.20
2006,07,22,14,29,29.10
2006,07,22,14,30,29.10
2006,07,22,14,31,29.10
2006,07,22,14,32,29.10
2006,07,22,14,33,29.20
2006,07,22,14,34,29.30
2006,07,22,14,35,29.40
2006,07,22,14,36,29.60
2006,07,22,14,37,29.70
2006,07,22,14,38,29.90
2006,07,22,14,39,30.00
2006,07,22,14,40,30.10
2006,07,22,14,41,29.90
2006,07,22,14,42,30.00
2006,07,22,14,43,30.10
2006,07,22,14,44,30.10
2006,07,22,14,45,30.20
2006,07,22,14,46,30.20
2006,07,22,14,47,30.20
2006,07,22,14,48,30.10
2006,07,22,14,49,29.90
2006,07,22,14,50,29.90
2006,07,22,14,51,30.10
2006,07,22,14,52,30.20
2006,07,22,14,53,30.30
2006,07,22,14,54,30.60
2006,07,22,14,55,30.70
2006,07,22,14,56,30.80
2006,07,22,14,57,30.80
2006,07,22,14,58,30.80
2006,07,22,14,59,30.80
2006,07,22,15,00,30.80
2006,07,22,15,01,30.70
2006,07,22,15,02,30.60
2006,07,22,15,03,30.60
2006,07,22,15,04,30.60
2006,07,22,15,05,30.60
2006,07,22,15,06,30.60
2006,07,22,15,07,30.70
2006,07,22,15,08,30.80
2006,07,22,15,09,30.80
2006,07,22,15,10,30.90
2006,07,22,15,11,31.00
2006,07,22,15,12,31.10
2006,07,22,15,13,31.10
2006,07,22,15,14,31.00
2006,07,22,15,15,31.00
2006,07,22,15,16,31.10
2006,07,22,15,17,31.20
2006,07,22,15,18,31.20
2006,07,22,15,19,31.20
2006,07,22,15,20,31.30
2006,07,22,15,21,31.30
2006,07,22,15,22,31.30
2006,07,22,15,23,31.30
2006,07,22,15,24,31.20
2006,07,22,15,25,31.20
2006,07,22,15,26,31.20
2006,07,22,15,27,31.10
2006,07,22,15,28,31.10
2006,07,22,15,29,31.10
2006,07,22,15,30,31.20
2006,07,22,15,31,31.30
2006,07,22,15,32,31.40
2006,07,22,15,33,31.60
2006,07,22,15,34,31.70
2006,07,22,15,35,31.80
2006,07,22,15,36,31.70
2006,07,22,15,37,31.60
2006,07,22,15,38,31.40
2006,07,22,15,39,31.20
2006,07,22,15,40,31.10
2006,07,22,15,41,31.10
2006,07,22,15,42,31.10
2006,07,22,15,43,31.10
2006,07,22,15,44,31.20
2006,07,22,15,45,31.20
2006,07,22,15,46,31.30
2006,07,22,15,47,31.30
2006,07,22,15,48,31.30
2006,07,22,15,49,31.30
2006,07,22,15,50,31.30
2006,07,22,15,51,31.30
2006,07,22,15,52,31.30
2006,07,22,15,53,31.20
2006,07,22,15,54,31.20
2006,07,22,15,55,31.20
2006,07,22,15,56,31.20
2006,07,22,15,57,31.10
2006,07,22,15,58,31.10
2006,07,22,15,59,31.10
2006,07,22,16,00,31.10
2006,07,22,16,01,31.20
2006,07,22,16,02,31.20
2006,07,22,16,03,31.20
2006,07,22,16,04,31.20
2006,07,22,16,05,31.20
2006,07,22,16,06,31.30
2006,07,22,16,07,31.30
2006,07,22,16,08,31.20
2006,07,22,16,09,31.20
2006,07,22,16,10,31.20
2006,07,22,16,11,31.30
2006,07,22,16,12,31.30
2006,07,22,16,13,31.40
2006,07,22,16,14,31.40
2006,07,22,16,15,31.40
2006,07,22,16,16,31.30
2006,07,22,16,17,31.20
2006,07,22,16,18,31.20
2006,07,22,16,19,31.20
2006,07,22,16,20,31.20
2006,07,22,16,21,31.20
2006,07,22,16,22,31.20
2006,07,22,16,23,31.20
2006,07,22,16,24,31.20
2006,07,22,16,25,31.20
2006,07,22,16,26,31.20
2006,07,22,16,27,31.30
2006,07,22,16,28,31.40
2006,07,22,16,29,31.50
2006,07,22,16,30,31.60
2006,07,22,16,31,31.60
2006,07,22,16,32,31.60
2006,07,22,16,33,31.50
2006,07,22,16,34,31.40
2006,07,22,16,35,31.40
2006,07,22,16,36,31.30
2006,07,22,16,37,31.30
2006,07,22,16,38,31.20
2006,07,22,16,39,31.20
2006,07,22,16,40,31.20
2006,07,22,16,41,31.20
2006,07,22,16,42,31.20
2006,07,22,16,43,31.20
2006,07,22,16,44,31.20
2006,07,22,16,45,31.20
2006,07,22,16,46,31.20
2006,07,22,16,47,31.20
2006,07,22,16,48,31.20
2006,07,22,16,49,31.20
2006,07,22,16,50,31.10
2006,07,22,16,51,31.00
2006,07,22,16,52,31.00
2006,07,22,16,53,30.90
2006,07,22,16,54,30.90
2006,07,22,16,55,31.00
2006,07,22,16,56,31.00
2006,07,22,16,57,31.00
2006,07,22,16,58,31.00
2006,07,22,16,59,31.00
2006,07,22,17,00,31.00
2006,07,22,17,01,31.00
2006,07,22,17,02,31.10
2006,07,22,17,03,31.10
2006,07,22,17,04,31.10
2006,07,22,17,05,31.10
2006,07,22,17,06,31.10
2006,07,22,17,07,31.10
2006,07,22,17,08,31.20
2006,07,22,17,09,31.20
2006,07,22,17,10,31.20
2006,07,22,17,11,31.20
2006,07,22,17,12,31.20
2006,07,22,17,13,31.20
2006,07,22,17,14,31.10
2006,07,22,17,15,31.10
2006,07,22,17,16,31.20
2006,07,22,17,17,31.30
2006,07,22,17,18,31.40
2006,07,22,17,19,31.40